Location: Bailleul
(50.3375°N, 2.8513°E)
Time: 10:58:57
(UTC+00:00)

Cosmos 2061 Rocket - Pass Details

Date: 16 June 2021
Orbit: 965 x 1013 km, 82.9° (Epoch: 27 July)

Event Time Altitude Azimuth Distance (km) Brightness Sun altitude
Rises 21:14:51 0° 351° (N) 3,762 8.3 -8.7°
Reaches altitude 10° 21:17:27 10° 355° (N) 2,807 7.5 -9.0°
Maximum altitude 21:23:51 63° 76° (ENE) 1,126 4.3 -9.6°
Enters shadow 21:29:45 12° 157° (SSE) 2,619 5.6 -10.1°
